Tracking 19636 objects as of 25-May-2019
HD Live streaming from Space Station
objects crossing your sky now

IRNSS 1B

Track IRNSS 1B now!
IRNSS 1B is classified as:


NORAD ID: 39635
Int'l Code: 2014-017A
Perigee: 35,704.2 km
Apogee: 35,885.2 km
Inclination: 29.4 °
Period: 1,436.1 minutes
Semi major axis: 42165 km
RCS: Unknown
Launch date: April 4, 2014
Source: India (IND)
Launch site: SRIHARIKOTA (SRI)

IRNSS 1B is an Indian navigation satellite, designed for a 10-year lifetime.
aabbcc
Your satellite tracking list
Your tracking list is empty




NASA's NSSDC Master Catalog

Two Line Element Set (TLE):
1 39635U 14017A   19143.98200206  .00000072  00000-0  00000+0 0  9992
2 39635  29.3650 283.5853 0021459 180.4060 185.9383  1.00268277 18927
Source of the keplerian elements: AFSPC